Regional Weather Roundup
Issued by NWS

Home | Current Version | Previous Version | Graphics & Text | Print | Product List | Glossary On
Versions: 1 2 3 4 5 6 7 8 9 10 11 12 13 14 15 16 17 18 19 20 21 22 23 24 25 26 27 28 29 30 31 32 33 34 35 36 37 38 39 40 41 42 43 44 45 46 47 48 49 50
000
ASUS43 KLMK 291602
RWRKY
KENTUCKY REGIONAL WEATHER ROUNDUP
NATIONAL WEATHER SERVICE LOUISVILLE KY
1200 PM EDT FRI MAY 29 2015

NOTE "FAIR" INDICATES FEW OR NO CLOUDS BELOW 12,000 FEET
WITH NO SIGNIFICANT WEATHER AND/OR OBSTRUCTIONS TO VISIBILITY.

KYZ001>023-026-027-061>063-070>075-291700-
WESTERN AND SOUTH CENTRAL KENTUCKY

CITY           SKY/WX    TMP DP  RH WIND       PRES   REMARKS
PADUCAH        PTSUNNY   78  69  73 S9        30.11S
HENDERSON      PTSUNNY   75  66  73 SW7       30.12F
OWENSBORO      PTSUNNY   78  69  73 S14       30.14F
HOPKINSVILLE   PTSUNNY   77  68  73 S9        30.15S
BOWLING GREEN  CLOUDY    76  66  71 S9        30.18S
GLASGOW        NOT AVBL
$$

KYZ024-025-028>034-038-045-046-053-291700-
NORTH CENTRAL KENTUCKY

CITY           SKY/WX    TMP DP  RH WIND       PRES   REMARKS
LOUISVILLE/SDF CLOUDY    78  67  68 SW9       30.17S
LOUISVILLE/LOU PTSUNNY   77  67  71 S7        30.18S
FORT KNOX      CLOUDY    75  67  76 S8        30.17R
$$

KYZ035>037-039>044-047>052-055>060-089>105-291700-
NORTHEAST KENTUCKY

CITY           SKY/WX    TMP DP  RH WIND       PRES   REMARKS
LEXINGTON      PTSUNNY   79  68  69 S14       30.20R
COVINGTON      PTSUNNY   76  68  76 S15       30.18R
FRANKFORT      PTSUNNY   78  66  66 SW9       30.18R
$$

KYZ054-064>069-076>088-106>120-291700-
SOUTHEAST KENTUCKY

CITY           SKY/WX    TMP DP  RH WIND       PRES   REMARKS
JACKSON        MOSUNNY   79  63  57 VRB6      30.23S
LONDON         MOSUNNY   81  62  52 S8        30.22S
SOMERSET       NOT AVBL
MIDDLESBORO    PTSUNNY   80  66  63 SW5       30.24S
MONTICELLO     MOSUNNY   82  67  60 S9        30.23S
$$



USA.gov is the U.S. government's official web portal to all federal, state and local government web resources and services.